Tracking 28888 objects as of 23-May-2024
HD Live streaming from Space Station
objects crossing your sky now

SBS 2

Track SBS 2 now!
SBS 2 is classified as:


NORAD ID: 12855
Int'l Code: 1981-096A
Perigee: 35,813.6 km
Apogee: 35,866.5 km
Inclination: 11.5 °
Period: 1,438.5 minutes
Semi major axis: 42211 km
RCS: 7.6855 m2 (large)
Launch date: September 24, 1981
Source: United States (US)
Launch site: AIR FORCE EASTERN TEST RANGE (AFETR)
Your satellite tracking list
Your tracking list is empty




NASA's NSSDC Master Catalog

Two Line Element Set (TLE):
1 12855U 81096A   24143.54888431 -.00000063  00000-0  00000-0 0  9990
2 12855  11.4658 326.6124 0006269 189.4577 356.8489  1.00106815111048
Source of the keplerian elements: AFSPC